Flag for China Weather past 2 weeks in Guangzhou, Guangdong, China

Now
84 °F

Thunderstorms. Broken clouds.


Feels Like: 96 °F
Forecast: 77 / 86 °F
Wind: 6 mph from East

Location: Canton Airport

Current Time: Aug 31, 2015 at 2:52:18 PM

Latest Report: Aug 31, 2015 at 2:00 PM


Visibility: 5 mi

Pressure: 29.74 "Hg

Humidity: 84%

Dew point: 79 °F

Location of GuangzhouLocation

Historic Weather in Guangzhou — Graph

°F

Guangzhou temperature yesterday

Maximum temperature yesterday: 86 °F (at 1:00 PM)
Minimum temperature yesterday: 79 °F (at 12:00 AM)
Average temperature yesterday: 81 °F

Past Weeks' High & Low Weather Summary

 TemperatureHumidityPressure
High99 °F (Aug 19, 3:00 PM)100% (Aug 17, 3:00 PM)29.80 "Hg (Aug 17, 3:00 PM)
Low75 °F (Aug 27, 9:30 PM)34% (Aug 25, 3:30 PM)29.47 "Hg (Aug 23, 3:30 PM)
Average86 °F74%29.68 "Hg
* Reported Aug 16 1:00 PM — Aug 31 1:30 PM, Guangzhou, Weather by CustomWeather, © 2015

Note: Actual official high and low records may vary slightly from our data, if they occured in-between our weather recording intervals... More about our weather records

Advertising

Guangzhou weather history for previous 24 hours

 ConditionsComfort  
Time TempWeatherWind HumidityBarometerVisibility
1:30 PM
Mon, Aug 31
84 °FPartly sunny.3 mph84%29.74 "HgN/A
1:00 PM84 °FScattered clouds.1 mph84%29.74 "HgN/A
12:30 PM84 °FSprinkles. Scattered clouds.3 mph84%29.74 "HgN/A
12:00 PM82 °FBroken clouds.1 mph84%29.77 "HgN/A
11:30 AM82 °FBroken clouds.1 mph84%29.74 "HgN/A
11:00 AM81 °FLight rain. More clouds than sun.1 mph94%29.77 "Hg3 mi
10:30 AM81 °FSprinkles. Broken clouds.3 mph89%29.77 "Hg4 mi
10:00 AM82 °FSprinkles. Partly sunny.1 mph84%29.77 "Hg5 mi
9:30 AM82 °FPassing clouds.3 mph84%29.77 "HgN/A
9:00 AM81 °FPassing clouds.3 mph84%29.77 "HgN/A
8:30 AM81 °FPassing clouds.3 mph89%29.74 "HgN/A
8:00 AM79 °FPartly sunny.3 mph89%29.74 "HgN/A
7:30 AM79 °FPartly sunny.3 mph89%29.74 "HgN/A
7:00 AM79 °FPartly sunny.3 mph89%29.74 "HgN/A
6:30 AM79 °FPartly sunny.3 mph89%29.71 "HgN/A
5:30 AM79 °FPassing clouds.3 mph89%29.71 "HgN/A
5:00 AM79 °FPassing clouds.1 mph89%29.71 "HgN/A
4:30 AM79 °FPassing clouds.1 mph89%29.71 "HgN/A
4:00 AM79 °FPassing clouds.3 mph89%29.71 "HgN/A
3:30 AM79 °FPartly cloudy.3 mph89%29.71 "HgN/A
3:00 AM79 °FPartly cloudy.3 mph89%29.74 "Hg5 mi
2:30 AM79 °FPartly cloudy.3 mph89%29.74 "Hg5 mi
2:00 AM79 °FPartly cloudy.1 mph89%29.74 "Hg5 mi
1:30 AM79 °FPartly cloudy.1 mph89%29.74 "Hg5 mi
1:00 AM79 °FPartly cloudy.1 mph94%29.74 "Hg5 mi
12:30 AM79 °FPartly cloudy.3 mph94%29.74 "Hg6 mi
12:00 AM79 °FPartly cloudy.1 mph94%29.74 "Hg4 mi
11:30 PM
Sun, Aug 30
79 °FPartly cloudy.1 mph94%29.77 "Hg4 mi
11:00 PM79 °FPartly cloudy.1 mph94%29.77 "Hg4 mi
10:30 PM79 °FPartly cloudy.No wind94%29.77 "Hg4 mi
10:00 PM79 °FPartly cloudy.1 mph94%29.77 "Hg4 mi
9:30 PM79 °FLight rain. Passing clouds.1 mph94%29.77 "Hg4 mi
9:00 PM79 °FLight rain. Overcast.1 mph94%29.74 "Hg4 mi
8:30 PM79 °FLight rain. Overcast.No wind94%29.74 "Hg4 mi
8:00 PM81 °FLight rain. Overcast.1 mph89%29.74 "HgN/A
7:30 PM81 °FLight rain. Overcast.3 mph89%29.71 "HgN/A
7:00 PM81 °FLight rain. Overcast.1 mph89%29.71 "HgN/A
6:30 PM81 °FLight rain. Overcast.3 mph89%29.71 "HgN/A
6:00 PM82 °FBroken clouds.3 mph84%29.71 "HgN/A
5:30 PM82 °FBroken clouds.8 mph79%29.68 "HgN/A
5:00 PM82 °FPartly sunny.6 mph84%29.68 "HgN/A
4:30 PM84 °FScattered clouds.8 mph74%29.68 "HgN/A
4:00 PM84 °FPassing clouds.8 mph74%29.68 "HgN/A
3:30 PM84 °FScattered clouds.13 mph70%29.68 "HgN/A
3:00 PM84 °FScattered clouds.10 mph74%29.68 "HgN/A
2:30 PM84 °FScattered clouds.8 mph79%29.68 "HgN/A
2:00 PM86 °FScattered clouds.8 mph75%29.71 "HgN/A
Weather by CustomWeather, © 2015

See weather overviewHow to use our weather pages